Location: Bad Salzschlirf
(50.3750°N, 9.3000°E)
Time: 03:56:15
(UTC+02:00)

ISS - Pass Details

Date: 12 July 2025
Orbit: 413 x 417 km, 51.6° (Epoch: 12 July)

Event Time Altitude Azimuth Distance (km) Brightness Sun altitude
Rises 01:10:29 0° 282° (WNW) 2,355 0.3 -17.6°
Reaches altitude 10° 01:12:35 10° 283° (WNW) 1,492 -0.8 -17.6°
Maximum altitude 01:15:56 81° 11° (N) 426 -3.8 -17.6°
Drops below altitude 10° 01:19:18 10° 100° (E) 1,491 -1.1 -17.6°
Enters shadow 01:19:21 10° 100° (E) 1,517 -1.1 -17.6°
